Time,TemperatureF,DewpointF,PressureIn,WindDirection,WindDirectionDegrees,WindSpeedMPH,WindSpeedGustMPH,Humidity,HourlyPrecipIn,Conditions,Clouds,dailyrainin,SoftwareType,DateUTC
2013-06-06 06:20:00,73.0,65.0,29.94,North,0,0.0,0.0,77,-99.99,,,0.00,,2013-06-06 16:20:00,
2013-06-06 06:33:00,73.0,65.0,29.94,North,0,0.0,0.0,77,-99.99,,,0.00,,2013-06-06 16:33:00,
2013-06-06 06:44:00,73.0,65.0,29.94,North,0,0.0,0.0,77,-99.99,,,0.00,,2013-06-06 16:44:00,
2013-06-06 06:53:00,73.0,65.0,29.94,North,0,0.0,0.0,77,-99.99,,,0.00,,2013-06-06 16:53:00,
2013-06-06 07:03:00,73.0,65.0,29.94,North,0,0.0,0.0,77,-99.99,,,0.00,,2013-06-06 17:03:00,
2013-06-06 07:12:00,73.0,65.0,29.94,North,0,0.0,0.0,77,-99.99,,,0.00,,2013-06-06 17:12:00,
2013-06-06 14:02:00,84.0,68.0,30.00,East,95,8.0,21.0,59,0.00,,,0.00,,2013-06-07 00:02:00,
2013-06-06 14:12:00,84.0,68.0,30.00,East,95,8.0,21.0,59,0.00,,,0.00,,2013-06-07 00:12:00,
2013-06-06 14:22:00,83.0,68.0,29.99,ENE,70,10.0,15.0,61,0.00,,,0.00,,2013-06-07 00:22:00,
2013-06-06 14:32:00,83.0,69.0,29.99,East,92,5.0,18.0,62,0.00,,,0.00,,2013-06-07 00:32:00,
2013-06-06 14:42:00,83.0,69.0,29.99,East,92,5.0,18.0,62,0.00,,,0.00,,2013-06-07 00:42:00,
2013-06-06 14:52:00,82.0,68.0,29.98,ESE,107,5.0,17.0,62,0.00,,,0.00,,2013-06-07 00:52:00,
2013-06-06 15:02:00,83.0,68.0,29.98,ESE,112,7.0,23.0,61,0.00,,,0.00,,2013-06-07 01:02:00,
2013-06-06 15:11:00,83.0,68.0,29.98,ESE,112,7.0,23.0,61,0.00,,,0.00,,2013-06-07 01:11:00,
2013-06-06 15:22:00,83.0,69.0,29.97,East,84,10.0,17.0,62,0.00,,,0.00,,2013-06-07 01:22:00,
2013-06-06 15:32:00,83.0,68.0,29.97,NE,51,7.0,16.0,61,0.00,,,0.00,,2013-06-07 01:32:00,
2013-06-06 15:42:00,83.0,68.0,29.97,NE,51,7.0,16.0,61,0.00,,,0.00,,2013-06-07 01:42:00,
2013-06-06 15:52:00,82.0,68.0,29.96,NE,55,8.0,23.0,63,0.00,,,0.00,,2013-06-07 01:52:00,
2013-06-06 16:02:00,82.0,68.0,29.96,ENE,61,12.0,19.0,62,0.00,,,0.00,,2013-06-07 02:02:00,
2013-06-06 16:22:00,81.0,68.0,29.96,NE,37,18.0,18.0,64,0.00,,,0.00,,2013-06-07 02:22:00,
2013-06-06 16:32:00,82.0,68.0,29.96,NE,44,9.0,13.0,63,0.00,,,0.00,,2013-06-07 02:32:00,
2013-06-06 16:42:00,82.0,68.0,29.96,NE,44,9.0,13.0,63,0.00,,,0.00,,2013-06-07 02:42:00,
2013-06-06 16:52:00,82.0,68.0,29.96,NNE,24,7.0,21.0,63,0.00,,,0.00,,2013-06-07 02:52:00,
2013-06-06 17:00:00,81.0,67.0,29.97,ESE,104,11.0,14.0,63,0.00,,,0.00,,2013-06-07 03:00:00,
2013-06-06 17:01:00,82.0,68.0,29.96,ESE,103,10.0,16.0,62,0.00,,,0.00,,2013-06-07 03:01:00,
2013-06-06 17:11:00,81.0,67.0,29.97,ESE,104,11.0,14.0,63,0.00,,,0.00,,2013-06-07 03:11:00,
2013-06-06 17:22:00,81.0,67.0,29.97,ESE,104,11.0,14.0,63,0.00,,,0.00,,2013-06-07 03:22:00,
2013-06-06 17:32:00,81.0,67.0,29.97,ESE,104,11.0,14.0,63,0.00,,,0.00,,2013-06-07 03:32:00,
2013-06-06 17:43:00,81.0,67.0,29.97,ESE,104,11.0,14.0,63,0.00,,,0.00,,2013-06-07 03:43:00,
2013-06-06 17:53:00,81.0,67.0,29.97,ESE,104,11.0,14.0,63,0.00,,,0.00,,2013-06-07 03:53:00,